This is the latest recevied weather packets stored in our database for station/object WD4ITN. If no packets are shown the sender has not sent any weather packets the latest 10 day(s).
| Time | Temp. | Humidity | Pressure | Rain* | Wind** | Luminosity | Snow |
|---|---|---|---|---|---|---|---|
| 1787528300 | 19.44° C | 62% | 1015 hPa | 0.51 mm | - | - | - |
| 1787528017 | 19.44° C | 61% | 1014.9 hPa | 0.51 mm | - | - | - |
| 1787527710 | 19.44° C | 60% | 1014.8 hPa | 0.51 mm | - | - | - |
| 1787527406 | 20° C | 60% | 1014.8 hPa | 0.51 mm | - | - | - |
| 1787527106 | 20° C | 63% | 1014.8 hPa | 0.51 mm | - | - | - |
| 1787526809 | 20° C | 60% | 1014.7 hPa | 0.51 mm | - | - | - |
| 1787526506 | 20° C | 60% | 1014.8 hPa | 0.51 mm | - | - | - |
| 1787526191 | 20° C | 59% | 1014.8 hPa | 0.51 mm | - | - | - |
| 1787525910 | 20° C | 60% | 1014.7 hPa | 0.51 mm | - | - | - |
| 1787525610 | 20.56° C | 61% | 1014.7 hPa | 0.51 mm | - | - | - |
| 1787525300 | 20.56° C | 60% | 1014.7 hPa | 0.51 mm | - | - | - |
| 1787525000 | 20.56° C | 61% | 1014.7 hPa | 0.51 mm | - | - | - |
| 1787524701 | 20.56° C | 61% | 1014.7 hPa | 0.51 mm | - | - | - |
| 1787524397 | 21.11° C | 60% | 1014.6 hPa | 0.51 mm | - | - | - |
| 1787524117 | 21.11° C | 60% | 1014.6 hPa | 0.51 mm | - | - | - |
| 1787523804 | 21.11° C | 59% | 1014.6 hPa | 0.51 mm | - | - | - |
| 1787523504 | 21.67° C | 59% | 1014.7 hPa | 0.51 mm | - | - | - |
| 1787523201 | 21.67° C | 56% | 1014.5 hPa | 0.51 mm | - | - | - |
| 1787522898 | 21.67° C | 57% | 1014.5 hPa | 0.51 mm | - | - | - |
| 1787522621 | 21.67° C | 55% | 1014.5 hPa | 0.51 mm | - | - | - |
| 1787522319 | 22.22° C | 56% | 1014.5 hPa | 0.51 mm | - | - | - |
| 1787522008 | 22.22° C | 58% | 1014.5 hPa | 0.51 mm | - | - | - |
| 1787521708 | 21.67° C | 58% | 1014.4 hPa | 0.51 mm | - | - | - |
| 1787521403 | 21.67° C | 56% | 1014.5 hPa | 0.51 mm | - | - | - |
| 1787521102 | 21.67° C | 58% | 1014.3 hPa | 0.51 mm | - | - | - |
* Rain since midnight (hover to see other rain measurements)
** Current wind speed in m/s (hover to see current wind gust speed)